User: anonymous   Login
Location: Unspecified
(0.0000°N, 0.0000°E)
Time: 02:13:03
(UTC+00:00)
Language:

SR - Orbit

View from above orbital plane
View from above orbital plane
View from above satellite
View from above satellite

Ground track
Ground track

The orbit data is extracted from the following two-line orbital elements,

1 00046U 60007B   15239.11976054  .00000227  00000-0  68484-4 0  9991
2 00046 066.6902 110.5006 0212043 357.9382 002.0827 14.48607602884639
Epoch (UTC): 27 August 2015 02:52:27
Eccentricity: 0.0212043
inclination: 66.6902°
perigee height: 579 km
apogee height: 881 km
right ascension of ascending node: 110.5006°
argument of perigee: 357.9382°
revolutions per day: 14.48607602
mean anomaly at epoch: 2.0827°
orbit number at epoch: 88463

The dashed part of the orbit path shows where the satellite is in the earth's shadow,  

DLR